WAH244 KSFO-KLAX

Flight info

Callsign WAH244
Flight time 0h 52m
Altitude 39000
Route WESLA5 SUSEY EBAYE BURGL IRNMN2
Aircraft B748/H-SDE3FGHIM1M2RWXY/LB1

Departure

Time 2026-04-25 02:48
Airport San Francisco International Airport (KSFO)

Arrival

Time 2026-04-25 03:40
Airport Los Angeles International Airport (KLAX)
Time Latitude Longitude Altitude Speed Heading
2026-04-25 02:29 37.61178 -122.38633 28 ft 0 kts 118°
2026-04-25 02:31 37.61182 -122.38643 29 ft 2 kts 118°
2026-04-25 02:31 37.61188 -122.38657 29 ft 2 kts 118°
2026-04-25 02:32 37.61194 -122.38670 29 ft 2 kts 118°
2026-04-25 02:32 37.61200 -122.38685 29 ft 2 kts 118°
2026-04-25 02:32 37.61206 -122.38700 29 ft 2 kts 118°
2026-04-25 02:32 37.61212 -122.38714 29 ft 1 kts 118°
2026-04-25 02:33 37.61218 -122.38728 29 ft 2 kts 118°
2026-04-25 02:33 37.61225 -122.38744 29 ft 2 kts 136°
2026-04-25 02:33 37.61236 -122.38751 29 ft 2 kts 177°
2026-04-25 02:33 37.61247 -122.38749 29 ft 0 kts 205°
2026-04-25 02:35 37.61239 -122.38753 29 ft 3 kts 202°
2026-04-25 02:36 37.61233 -122.38756 29 ft 0 kts 203°
2026-04-25 02:37 37.61232 -122.38757 29 ft 0 kts 204°
2026-04-25 02:38 37.61227 -122.38759 29 ft 1 kts 204°
2026-04-25 02:38 37.61217 -122.38764 29 ft 2 kts 204°
2026-04-25 02:38 37.61201 -122.38773 29 ft 3 kts 207°
2026-04-25 02:38 37.61183 -122.38786 29 ft 3 kts 210°
2026-04-25 02:39 37.61159 -122.38803 28 ft 4 kts 210°
2026-04-25 02:39 37.61129 -122.38824 29 ft 6 kts 210°
2026-04-25 02:39 37.61082 -122.38858 29 ft 8 kts 209°
2026-04-25 02:39 37.61011 -122.38852 29 ft 10 kts 137°
2026-04-25 02:40 37.60965 -122.38754 29 ft 13 kts 117°
2026-04-25 02:40 37.60918 -122.38638 29 ft 14 kts 117°
2026-04-25 02:40 37.60875 -122.38488 29 ft 16 kts 95°
2026-04-25 02:40 37.60914 -122.38370 28 ft 6 kts 26°
2026-04-25 02:41 37.60951 -122.38344 29 ft 7 kts 29°
2026-04-25 02:41 37.61000 -122.38310 28 ft 8 kts 28°
2026-04-25 02:41 37.61062 -122.38269 29 ft 10 kts 28°
2026-04-25 02:41 37.61121 -122.38229 28 ft 11 kts 28°
2026-04-25 02:42 37.61187 -122.38186 29 ft 12 kts 28°
2026-04-25 02:42 37.61274 -122.38128 29 ft 13 kts 28°
2026-04-25 02:42 37.61366 -122.38067 29 ft 14 kts 28°
2026-04-25 02:42 37.61435 -122.38022 29 ft 15 kts 28°
2026-04-25 02:43 37.61519 -122.37966 29 ft 16 kts 27°
2026-04-25 02:43 37.61634 -122.37889 28 ft 16 kts 39°
2026-04-25 02:43 37.61658 -122.37732 29 ft 18 kts 95°
2026-04-25 02:43 37.61642 -122.37569 28 ft 19 kts 97°
2026-04-25 02:44 37.61622 -122.37369 29 ft 20 kts 97°
2026-04-25 02:44 37.61570 -122.37158 29 ft 21 kts 115°
2026-04-25 02:44 37.61552 -122.37112 29 ft 4 kts 117°
2026-04-25 02:44 37.61520 -122.37037 29 ft 10 kts 118°
2026-04-25 02:45 37.61471 -122.36935 29 ft 13 kts 129°
2026-04-25 02:45 37.61392 -122.36818 29 ft 17 kts 127°
2026-04-25 02:45 37.61316 -122.36658 29 ft 20 kts 118°
2026-04-25 02:45 37.61235 -122.36464 28 ft 24 kts 118°
2026-04-25 02:46 37.61147 -122.36259 28 ft 27 kts 119°
2026-04-25 02:46 37.61057 -122.36042 29 ft 23 kts 110°
2026-04-25 02:46 37.61105 -122.35899 29 ft 20 kts 26°
2026-04-25 02:46 37.61221 -122.35960 29 ft 21 kts 298°
2026-04-25 02:47 37.61384 -122.36346 29 ft 90 kts 298°
2026-04-25 02:47 37.61788 -122.37318 33 ft 161 kts 296°
2026-04-25 02:47 37.62352 -122.38638 466 ft 170 kts 298°
2026-04-25 02:47 37.62902 -122.39951 571 ft 184 kts 296°
2026-04-25 02:48 37.63574 -122.41479 1094 ft 216 kts 298°
2026-04-25 02:48 37.64336 -122.43201 2001 ft 229 kts 298°
2026-04-25 02:48 37.65083 -122.44913 2898 ft 230 kts 298°
2026-04-25 02:48 37.65859 -122.46697 3588 ft 239 kts 299°
2026-04-25 02:49 37.66650 -122.48532 4392 ft 243 kts 296°
2026-04-25 02:49 37.67171 -122.50624 4943 ft 259 kts 277°
2026-04-25 02:49 37.67075 -122.52918 5566 ft 272 kts 255°
2026-04-25 02:49 37.66221 -122.55079 6294 ft 280 kts 230°
2026-04-25 02:50 37.64725 -122.56585 7075 ft 284 kts 205°
2026-04-25 02:50 37.62810 -122.57148 7889 ft 286 kts 178°
2026-04-25 02:50 37.60895 -122.56609 8635 ft 289 kts 152°
2026-04-25 02:50 37.59190 -122.55268 9386 ft 293 kts 146°
2026-04-25 02:51 37.57434 -122.53896 10140 ft 298 kts 149°
2026-04-25 02:51 37.55638 -122.52589 10799 ft 306 kts 150°
2026-04-25 02:51 37.53708 -122.51274 11246 ft 322 kts 151°
2026-04-25 02:51 37.51729 -122.49809 11610 ft 340 kts 146°
2026-04-25 02:52 37.49719 -122.48098 11915 ft 360 kts 144°
2026-04-25 02:52 37.47768 -122.46016 12166 ft 379 kts 132°
2026-04-25 02:52 37.45975 -122.43487 12565 ft 395 kts 130°
2026-04-25 02:52 37.44134 -122.40842 13243 ft 403 kts 131°
2026-04-25 02:53 37.42253 -122.38261 14062 ft 407 kts 132°
2026-04-25 02:53 37.40329 -122.35663 14837 ft 411 kts 132°
2026-04-25 02:53 37.38384 -122.33032 15563 ft 415 kts 132°
2026-04-25 02:53 37.36409 -122.30365 16233 ft 421 kts 133°
2026-04-25 02:54 37.34392 -122.27640 16876 ft 427 kts 133°
2026-04-25 02:54 37.32374 -122.24914 17477 ft 433 kts 133°
2026-04-25 02:54 37.30303 -122.22116 18065 ft 439 kts 133°
2026-04-25 02:54 37.28205 -122.19282 18681 ft 444 kts 133°
2026-04-25 02:55 37.26099 -122.16440 19272 ft 449 kts 134°
2026-04-25 02:55 37.23975 -122.13578 19857 ft 454 kts 134°
2026-04-25 02:55 37.21804 -122.10653 20492 ft 457 kts 134°
2026-04-25 02:55 37.19642 -122.07739 21109 ft 460 kts 134°
2026-04-25 02:56 37.17475 -122.04822 21667 ft 465 kts 135°
2026-04-25 02:56 37.15274 -122.01864 22229 ft 468 kts 135°
2026-04-25 02:56 37.13023 -121.98841 22791 ft 473 kts 135°
2026-04-25 02:56 37.10782 -121.95834 23322 ft 476 kts 135°
2026-04-25 02:57 37.08515 -121.92777 23818 ft 481 kts 135°
2026-04-25 02:57 37.06222 -121.89705 24288 ft 486 kts 135°
2026-04-25 02:57 37.03921 -121.86626 24736 ft 491 kts 135°
2026-04-25 02:57 37.01603 -121.83522 25198 ft 495 kts 136°
2026-04-25 02:58 36.99215 -121.80332 25628 ft 500 kts 136°
2026-04-25 02:58 36.96843 -121.77165 26082 ft 504 kts 136°
2026-04-25 02:58 36.94419 -121.73930 26521 ft 509 kts 136°
2026-04-25 02:58 36.92014 -121.70721 26948 ft 513 kts 136°
2026-04-25 02:59 36.89585 -121.67484 27351 ft 518 kts 137°
2026-04-25 02:59 36.87102 -121.64179 27748 ft 522 kts 137°
2026-04-25 02:59 36.84619 -121.60881 28151 ft 527 kts 137°
2026-04-25 02:59 36.82091 -121.57526 28559 ft 531 kts 137°
2026-04-25 03:00 36.79559 -121.54168 28941 ft 535 kts 137°
2026-04-25 03:00 36.76989 -121.50761 29314 ft 540 kts 137°
2026-04-25 03:00 36.74440 -121.47388 29678 ft 544 kts 137°
2026-04-25 03:00 36.71823 -121.43928 30060 ft 548 kts 137°
2026-04-25 03:01 36.69221 -121.40491 30529 ft 551 kts 137°
2026-04-25 03:01 36.66588 -121.37011 31105 ft 550 kts 138°
2026-04-25 03:01 36.63981 -121.33570 31807 ft 547 kts 139°
2026-04-25 03:01 36.61408 -121.30174 32572 ft 541 kts 139°
2026-04-25 03:02 36.58855 -121.26811 33365 ft 535 kts 139°
2026-04-25 03:02 36.56323 -121.23480 34018 ft 531 kts 139°
2026-04-25 03:02 36.53785 -121.20149 34404 ft 532 kts 140°
2026-04-25 03:02 36.51221 -121.16791 34679 ft 534 kts 140°
2026-04-25 03:03 36.48683 -121.13468 34937 ft 536 kts 140°
2026-04-25 03:03 36.46123 -121.10117 35274 ft 536 kts 140°
2026-04-25 03:03 36.43580 -121.06779 35672 ft 534 kts 139°
2026-04-25 03:03 36.41074 -121.03389 36110 ft 532 kts 137°
2026-04-25 03:04 36.38662 -120.99965 36633 ft 530 kts 137°
2026-04-25 03:04 36.36272 -120.96495 36951 ft 532 kts 136°
2026-04-25 03:04 36.33901 -120.92991 37246 ft 533 kts 136°
2026-04-25 03:05 36.29100 -120.86031 37900 ft 532 kts 137°
2026-04-25 03:05 36.26683 -120.82574 38155 ft 532 kts 137°
2026-04-25 03:05 36.24239 -120.79085 38379 ft 534 kts 137°
2026-04-25 03:05 36.21828 -120.75645 38640 ft 534 kts 137°
2026-04-25 03:06 36.19389 -120.72170 38897 ft 534 kts 137°
2026-04-25 03:06 36.16830 -120.68870 38889 ft 526 kts 144°
2026-04-25 03:06 36.11151 -120.63596 38925 ft 516 kts 154°
2026-04-25 03:07 36.05505 -120.58284 38932 ft 525 kts 143°
2026-04-25 03:07 36.00459 -120.51748 38918 ft 527 kts 138°
2026-04-25 03:08 35.95490 -120.45091 38917 ft 531 kts 139°
2026-04-25 03:08 35.90338 -120.38618 38903 ft 529 kts 142°
2026-04-25 03:09 35.85023 -120.32388 38899 ft 525 kts 144°
2026-04-25 03:09 35.79870 -120.26511 38888 ft 529 kts 144°
2026-04-25 03:10 35.74442 -120.20088 38895 ft 529 kts 143°
2026-04-25 03:10 35.69126 -120.13800 38899 ft 528 kts 145°
2026-04-25 03:11 35.63415 -120.08360 38904 ft 516 kts 155°
2026-04-25 03:11 35.57315 -120.03754 38891 ft 512 kts 158°
2026-04-25 03:12 35.51259 -119.99229 38915 ft 513 kts 157°
2026-04-25 03:12 35.45197 -119.94672 39006 ft 511 kts 157°
2026-04-25 03:13 35.39095 -119.90095 38401 ft 517 kts 157°
2026-04-25 03:13 35.36068 -119.87824 37795 ft 512 kts 157°
2026-04-25 03:13 35.33058 -119.85558 37042 ft 508 kts 157°
2026-04-25 03:14 35.29995 -119.83259 36557 ft 512 kts 157°
2026-04-25 03:14 35.27035 -119.80843 35915 ft 518 kts 152°
2026-04-25 03:14 35.24142 -119.78185 35456 ft 520 kts 150°
2026-04-25 03:14 35.21274 -119.75464 34942 ft 521 kts 150°
2026-04-25 03:15 35.18449 -119.72732 34436 ft 520 kts 150°
2026-04-25 03:15 35.15591 -119.70012 33886 ft 519 kts 150°
2026-04-25 03:15 35.12709 -119.67320 33277 ft 522 kts 150°
2026-04-25 03:15 35.09856 -119.64670 32666 ft 524 kts 150°
2026-04-25 03:16 35.06898 -119.61929 32055 ft 530 kts 149°
2026-04-25 03:16 35.03965 -119.59206 31440 ft 530 kts 149°
2026-04-25 03:16 35.01056 -119.56502 30835 ft 534 kts 149°
2026-04-25 03:16 34.98121 -119.53773 30236 ft 535 kts 148°
2026-04-25 03:17 34.95155 -119.51015 29630 ft 535 kts 148°
2026-04-25 03:17 34.92180 -119.48248 29029 ft 540 kts 148°
2026-04-25 03:17 34.89185 -119.45495 28576 ft 537 kts 149°
2026-04-25 03:17 34.86214 -119.42828 28138 ft 528 kts 149°
2026-04-25 03:18 34.83301 -119.40236 27742 ft 520 kts 149°
2026-04-25 03:18 34.80357 -119.37625 27383 ft 513 kts 149°
2026-04-25 03:18 34.77533 -119.35110 27079 ft 499 kts 149°
2026-04-25 03:18 34.74783 -119.32650 26849 ft 485 kts 150°
2026-04-25 03:19 34.72107 -119.30283 25733 ft 473 kts 150°
2026-04-25 03:19 34.69480 -119.27988 24983 ft 453 kts 151°
2026-04-25 03:19 34.66980 -119.25819 24325 ft 437 kts 151°
2026-04-25 03:19 34.64532 -119.23706 23943 ft 432 kts 152°
2026-04-25 03:20 34.62077 -119.21592 23641 ft 427 kts 152°
2026-04-25 03:20 34.59676 -119.19525 23340 ft 426 kts 152°
2026-04-25 03:20 34.57247 -119.17434 23044 ft 427 kts 152°
2026-04-25 03:20 34.54846 -119.15349 22538 ft 431 kts 150°
2026-04-25 03:21 34.52407 -119.13189 21951 ft 431 kts 150°
2026-04-25 03:21 34.50026 -119.11076 21378 ft 429 kts 150°
2026-04-25 03:21 34.47629 -119.08946 20777 ft 428 kts 149°
2026-04-25 03:21 34.45224 -119.06813 20173 ft 427 kts 149°
2026-04-25 03:22 34.42837 -119.04705 19460 ft 426 kts 149°
2026-04-25 03:22 34.40469 -119.02650 18617 ft 412 kts 149°
2026-04-25 03:22 34.38162 -119.00654 17951 ft 396 kts 149°
2026-04-25 03:22 34.35961 -118.98759 17487 ft 392 kts 149°
2026-04-25 03:23 34.33715 -118.96818 16916 ft 391 kts 148°
2026-04-25 03:23 34.31567 -118.94873 16692 ft 382 kts 147°
2026-04-25 03:23 34.29446 -118.92934 16423 ft 375 kts 148°
2026-04-25 03:23 34.27385 -118.91058 16176 ft 374 kts 147°
2026-04-25 03:24 34.25287 -118.89125 15918 ft 377 kts 146°
2026-04-25 03:24 34.23175 -118.87130 15155 ft 388 kts 147°
2026-04-25 03:24 34.21017 -118.85169 14389 ft 391 kts 147°
2026-04-25 03:24 34.18883 -118.83243 13538 ft 379 kts 147°
2026-04-25 03:25 34.16809 -118.81358 12962 ft 360 kts 146°
2026-04-25 03:25 34.14944 -118.79462 12581 ft 341 kts 141°
2026-04-25 03:25 34.13244 -118.77586 12208 ft 323 kts 141°
2026-04-25 03:25 34.11606 -118.75788 11856 ft 313 kts 140°
2026-04-25 03:26 34.09998 -118.74029 11577 ft 311 kts 141°
2026-04-25 03:26 34.08403 -118.72290 11267 ft 304 kts 140°
2026-04-25 03:26 34.06851 -118.70601 10955 ft 301 kts 140°
2026-04-25 03:26 34.05302 -118.68917 10798 ft 305 kts 140°
2026-04-25 03:27 34.03741 -118.67127 10513 ft 309 kts 130°
2026-04-25 03:27 34.02684 -118.64906 10242 ft 309 kts 108°
2026-04-25 03:27 34.02390 -118.62358 9986 ft 307 kts 91°
2026-04-25 03:27 34.02367 -118.59795 9632 ft 307 kts 93°
2026-04-25 03:28 34.02158 -118.57239 9245 ft 306 kts 98°
2026-04-25 03:28 34.01851 -118.54707 8875 ft 305 kts 97°
2026-04-25 03:28 34.01748 -118.52186 8525 ft 301 kts 78°
2026-04-25 03:28 34.02363 -118.49815 8284 ft 293 kts 78°
2026-04-25 03:29 34.02274 -118.47375 8006 ft 295 kts 110°
2026-04-25 03:29 34.01140 -118.45334 7556 ft 297 kts 142°
2026-04-25 03:29 33.99321 -118.44285 7185 ft 290 kts 169°
2026-04-25 03:29 33.97338 -118.43817 7039 ft 281 kts 170°
2026-04-25 03:30 33.95417 -118.43392 6885 ft 280 kts 171°
2026-04-25 03:30 33.93475 -118.42966 6775 ft 282 kts 171°
2026-04-25 03:30 33.91588 -118.42315 6656 ft 284 kts 149°
2026-04-25 03:30 33.90233 -118.40627 6643 ft 287 kts 115°
2026-04-25 03:31 33.89779 -118.38310 6647 ft 287 kts 92°
2026-04-25 03:31 33.89696 -118.35890 6587 ft 288 kts 91°
2026-04-25 03:31 33.89629 -118.33497 6509 ft 287 kts 91°
2026-04-25 03:31 33.89566 -118.31085 6432 ft 285 kts 91°
2026-04-25 03:32 33.89505 -118.28708 6310 ft 286 kts 91°
2026-04-25 03:32 33.89443 -118.26303 6074 ft 286 kts 91°
2026-04-25 03:32 33.89384 -118.23919 5845 ft 284 kts 91°
2026-04-25 03:32 33.89333 -118.21564 5561 ft 282 kts 91°
2026-04-25 03:33 33.89283 -118.19218 5291 ft 280 kts 91°
2026-04-25 03:33 33.89283 -118.16869 4940 ft 280 kts 84°
2026-04-25 03:33 33.89543 -118.14579 4607 ft 276 kts 81°
2026-04-25 03:33 33.89900 -118.12326 4231 ft 272 kts 68°
2026-04-25 03:34 33.91000 -118.10603 4056 ft 257 kts 32°
2026-04-25 03:34 33.92639 -118.10038 3976 ft 240 kts 354°
2026-04-25 03:34 33.94187 -118.10529 3988 ft 220 kts 340°
2026-04-25 03:34 33.95520 -118.11259 3943 ft 205 kts 330°
2026-04-25 03:35 33.96526 -118.12354 3949 ft 191 kts 294°
2026-04-25 03:35 33.96636 -118.13925 4018 ft 195 kts 256°
2026-04-25 03:35 33.96279 -118.15522 3900 ft 195 kts 257°
2026-04-25 03:35 33.96017 -118.17107 3660 ft 195 kts 259°
2026-04-25 03:36 33.95799 -118.18710 3376 ft 194 kts 260°
2026-04-25 03:36 33.95600 -118.20328 3092 ft 192 kts 261°
2026-04-25 03:36 33.95422 -118.21892 2814 ft 186 kts 261°
2026-04-25 03:36 33.95260 -118.23396 2540 ft 177 kts 261°
2026-04-25 03:37 33.95111 -118.24828 2304 ft 167 kts 261°
2026-04-25 03:37 33.94974 -118.26174 2063 ft 158 kts 261°
2026-04-25 03:37 33.94849 -118.27469 1849 ft 154 kts 261°
2026-04-25 03:37 33.94707 -118.28752 1676 ft 154 kts 260°
2026-04-25 03:38 33.94572 -118.30035 1474 ft 153 kts 261°
2026-04-25 03:38 33.94443 -118.31297 1271 ft 151 kts 262°
2026-04-25 03:38 33.94317 -118.32546 1070 ft 151 kts 262°
2026-04-25 03:38 33.94190 -118.33810 870 ft 151 kts 262°
2026-04-25 03:39 33.94062 -118.35055 668 ft 150 kts 262°
2026-04-25 03:39 33.93937 -118.36298 471 ft 150 kts 262°
2026-04-25 03:39 33.93803 -118.37534 278 ft 148 kts 262°
2026-04-25 03:39 33.93686 -118.38731 122 ft 124 kts 262°
2026-04-25 03:40 33.93624 -118.39335 127 ft 31 kts 263°
2026-04-25 03:40 33.93598 -118.39584 127 ft 29 kts 269°
2026-04-25 03:40 33.93618 -118.39802 128 ft 30 kts 284°
2026-04-25 03:40 33.93661 -118.40053 129 ft 24 kts 269°
2026-04-25 03:41 33.93658 -118.40124 130 ft 0 kts 267°
2026-04-25 03:41 33.93656 -118.40154 130 ft 7 kts 263°
2026-04-25 03:41 33.93646 -118.40250 131 ft 15 kts 263°
2026-04-25 03:41 33.93630 -118.40389 131 ft 17 kts 262°
2026-04-25 03:42 33.93615 -118.40535 132 ft 17 kts 263°
2026-04-25 03:42 33.93599 -118.40683 133 ft 18 kts 262°
2026-04-25 03:42 33.93582 -118.40837 134 ft 18 kts 266°
2026-04-25 03:42 33.93567 -118.40997 134 ft 19 kts 263°
2026-04-25 03:43 33.93557 -118.41143 134 ft 13 kts 277°
2026-04-25 03:43 33.93559 -118.41155 134 ft 0 kts 280°
2026-04-25 03:44 33.93559 -118.41157 134 ft 1 kts 280°
2026-04-25 03:44 33.93563 -118.41180 134 ft 4 kts 287°
2026-04-25 03:44 33.93586 -118.41233 134 ft 8 kts 312°
2026-04-25 03:44 33.93646 -118.41267 133 ft 10 kts 349°
2026-04-25 03:45 33.93722 -118.41271 134 ft 12 kts 13°
2026-04-25 03:45 33.93813 -118.41239 133 ft 13 kts 38°
2026-04-25 03:45 33.93886 -118.41177 134 ft 14 kts 13°
2026-04-25 03:45 33.93983 -118.41183 134 ft 15 kts 354°
2026-04-25 03:46 33.94079 -118.41196 134 ft 16 kts 353°
2026-04-25 03:46 33.94208 -118.41216 134 ft 17 kts 345°
2026-04-25 03:46 33.94284 -118.41322 134 ft 17 kts 312°
2026-04-25 03:46 33.94304 -118.41394 134 ft 3 kts 261°
2026-04-25 03:47 33.94300 -118.41420 134 ft 4 kts 263°
2026-04-25 03:47 33.94299 -118.41434 134 ft 0 kts 263°
2026-04-25 03:47 33.94299 -118.41435 134 ft 0 kts 263°